カタログに戻る

CZ-4B DEB

運用中SSO
NORAD 38312·DEBRIS·🇨🇳 China

打ち上げ Dec 22, 2011 から Taiyuan Satellite Launch Center

Loading…

次のパス (今後24時間)

TLE

最新Source: Space-Track

元期: Sep 14, 2026, 03:21 UTC

1 38312U 11079F   26257.14016527  .00001937  00000-0  50345-3 0  9993
2 38312  98.3641 225.1351 0102804 340.7793  77.1320 14.47715517717879

AllMySatでCZ-4B DEBをリアルタイム追跡

Download on the App Store